Doylestown, PA

10:42 AM EST on December 11, 2019 (GMT -0500)
Doylestown

Weather History for KDYL - October, 2019

Change the Weather History Date:

Thursday, October 17, 2019

  Actual Average (KTTN) Record (KTTN)
Temperature  
Mean Temperature 54 °F -  
Max Temperature 57 °F 61 °F 87 °F (1938)
Min Temperature 51 °F 42 °F 33 °F (1937)
Degree Days  
Heating Degree Days 11    
Growing Degree Days 4 (Base 50)    
Moisture  
Dew Point 38 °F    
Average Humidity 57    
Maximum Humidity 68    
Minimum Humidity 47    
Precipitation  
Precipitation 0.00 in - - ()
Sea Level Pressure  
Sea Level Pressure 29.48 in    
Wind  
Wind Speed 14 mph (West)    
Max Wind Speed 22 mph    
Max Gust Speed 38 mph    
Visibility 10 miles    
Events      
Averages and records for this station are not official NWS values.
T = Trace of Precipitation, MM = Missing Value Source: NWS Daily Summary

Daily Weather History Graph

Daily Weather History Graph

Search for Another Location

Airport or City:

Astronomy

Oct. 17, 2019 Rise Set
Actual Time 7:13 AM EDT 6:17 PM EDT
Civil Twilight 6:45 AM EDT 6:45 PM EDT
Nautical Twilight 6:14 AM EDT 7:16 PM EDT
Astronomical Twilight 5:42 AM EDT 7:48 PM EDT
Moon 8:47 PM EDT (10/17) 10:42 AM EDT (10/17)
Length of Visible Light 11h 59m
Length of Day
11h 04m
Waning Gibbous, 87% of the Moon is Illuminated
Oct 17
Waning Gibbous
Oct 21
Last Quarter
Oct 27
New
Nov 4
First Quarter
Nov 12
Full

Hourly Weather History & Observations

Time (EDT) Temp. Dew Point Humidity Pressure Visibility Wind Dir Wind Speed Gust Speed Precip Events Conditions
12:54 AM 51.1 °F 39.9 °F 66% 29.37 in 10.0 mi WNW 17.3 mph 27.6 mph N/A   Mostly Cloudy
1:54 AM 52.0 °F 39.9 °F 63% 29.39 in 10.0 mi West 11.5 mph 24.2 mph N/A   Overcast
2:54 AM 51.1 °F 39.9 °F 66% 29.38 in 10.0 mi West 9.2 mph 21.9 mph N/A   Scattered Clouds
3:54 AM 51.1 °F 41.0 °F 68% 29.37 in 10.0 mi West 8.1 mph 19.6 mph N/A   Clear
4:54 AM 51.1 °F 39.9 °F 66% 29.37 in 10.0 mi West 11.5 mph 19.6 mph N/A   Mostly Cloudy
5:54 AM 51.1 °F 39.0 °F 63% 29.37 in 10.0 mi West 12.7 mph 27.6 mph N/A   Mostly Cloudy
6:54 AM 51.1 °F 37.9 °F 61% 29.39 in 10.0 mi West 10.4 mph 20.7 mph N/A   Overcast
7:54 AM 51.1 °F 37.0 °F 59% 29.40 in 10.0 mi West 12.7 mph 25.3 mph N/A   Overcast
8:54 AM 52.0 °F 37.0 °F 57% 29.41 in 10.0 mi West 18.4 mph 29.9 mph N/A   Scattered Clouds
9:54 AM 53.1 °F 37.9 °F 57% 29.42 in 10.0 mi West 17.3 mph 38.0 mph N/A   Overcast
10:54 AM 54.0 °F 37.0 °F 53% 29.43 in 10.0 mi West 19.6 mph 34.5 mph N/A   Overcast
11:54 AM 55.9 °F 37.9 °F 51% 29.43 in 10.0 mi West 17.3 mph 34.5 mph N/A   Overcast
12:54 PM 57.0 °F 37.0 °F 47% 29.43 in 10.0 mi WSW 18.4 mph 31.1 mph N/A   Overcast
1:54 PM 57.0 °F 37.9 °F 49% 29.45 in 10.0 mi West 17.3 mph 34.5 mph N/A   Overcast
2:54 PM 57.9 °F 39.0 °F 49% 29.47 in 10.0 mi West 21.9 mph 34.5 mph N/A   Overcast
3:54 PM 57.0 °F 37.9 °F 49% 29.49 in 10.0 mi West 12.7 mph 27.6 mph N/A   Overcast
4:54 PM 55.9 °F 37.9 °F 51% 29.52 in 10.0 mi West 12.7 mph 24.2 mph N/A   Overcast
5:54 PM 55.0 °F 37.9 °F 53% 29.55 in 10.0 mi West 16.1 mph 28.8 mph N/A   Overcast
6:54 PM 54.0 °F 37.9 °F 55% 29.58 in 10.0 mi WNW 18.4 mph 27.6 mph N/A   Overcast
7:54 PM 53.1 °F 37.9 °F 57% 29.60 in 10.0 mi WNW 11.5 mph 28.8 mph N/A   Overcast
8:54 PM 53.1 °F 39.0 °F 59% 29.64 in 10.0 mi West 12.7 mph 21.9 mph N/A   Overcast
9:54 PM 53.1 °F 37.9 °F 57% 29.67 in 10.0 mi West 15.0 mph 27.6 mph N/A   Overcast
10:54 PM 53.1 °F 37.9 °F 57% 29.68 in 10.0 mi WNW 19.6 mph 29.9 mph N/A   Overcast
11:54 PM 51.1 °F 37.9 °F 61% 29.69 in 10.0 mi WNW 12.7 mph 25.3 mph N/A   Mostly Cloudy